M I D A S
Marine Information and Data Acquisition System
Tripno 1379 of the Zeeleeuw from 2007-10-02 05:09:04 to 2007-10-02 18:04:07
Back to CruiseResearch ActivitiesStationsMapUnderway DataData graphs

EquipmentUnitsComments
TimeDGPSUTC
LatitudeDGPSDM.mWGS84
LongitudeDGPSDM.mWGS84
SpeedMeteo Stationm/sRelative wind speed
DirectionMeteo StationdegRelative wind direction
TemperatureMeteo Stationdeg CelciusAir temperature
PressureMeteo StationPaAtmospheric pressure
HumidityMeteo Station%Relative humidity
Missing or incorrect values are displayed as -999
Metereological data collected by the RV Zeeleeuw from 2007-10-02 05:12:44 to 2007-10-02 18:13:25
                                                                                    Next 1000 lines
Time Latitude Longitude Speed Direction Temperature Pressure Humidity
2007-10-02 05:12:54 51°13.597 2°56.093 2.2 233 12.1 101970 100
2007-10-02 05:12:58 51°13.597 2°56.091 1.9 324 12.1 101970 100
2007-10-02 05:13:04 51°13.598 2°56.089 4.4 317 12.1 101970 100
2007-10-02 05:13:09 51°13.599 2°56.086 3.7 320 12.1 101970 100
2007-10-02 05:13:14 51°13.599 2°56.082 3.8 317 12.1 101970 100
2007-10-02 05:13:19 51°13.601 2°56.077 3.9 315 12.1 101970 100
2007-10-02 05:13:25 51°13.602 2°56.071 3.3 33 12.1 101970 100
2007-10-02 05:13:31 51°13.604 2°56.064 2.7 28 12.1 101970 100
2007-10-02 05:13:37 51°13.606 2°56.055 3.2 239 12.1 101970 100
2007-10-02 05:13:42 51°13.608 2°56.048 2.5 25 12.1 101970 100
2007-10-02 05:13:48 51°13.611 2°56.038 3.4 241 12.1 101970 100
2007-10-02 05:13:53 51°13.613 2°56.03 2.8 26 12.1 101970 100
2007-10-02 05:13:58 51°13.616 2°56.021 2.7 37 12.1 101970 100
2007-10-02 05:14:03 51°13.618 2°56.011 2.5 19 12.1 101970 100
2007-10-02 05:14:08 51°13.621 2°56.002 3 237 12.1 101970 100
2007-10-02 05:14:13 51°13.624 2°55.992 2.7 26 12.1 101970 100
2007-10-02 05:14:18 51°13.627 2°55.982 1.3 263 12.1 101970 100
2007-10-02 05:14:23 51°13.63 2°55.972 1.2 263 12.1 101970 100
2007-10-02 05:14:28 51°13.634 2°55.962 0.8 31 12.1 101970 100
2007-10-02 05:14:33 51°13.637 2°55.951 0.6 26 12.1 101970 100
2007-10-02 05:14:38 51°13.641 2°55.941 0.9 268 12.1 101970 100
2007-10-02 05:14:43 51°13.645 2°55.931 1.2 27 12.1 101970 100
2007-10-02 05:14:48 51°13.649 2°55.921 1.6 269 12.1 101970 100
2007-10-02 05:14:53 51°13.653 2°55.911 1.2 270 12.1 101970 100
2007-10-02 05:14:58 51°13.657 2°55.901 2 263 12.1 101970 100
2007-10-02 05:15:03 51°13.661 2°55.89 1.8 265 12.1 101970 100
2007-10-02 05:15:08 51°13.665 2°55.881 1.3 269 12.1 101970 100
2007-10-02 05:15:13 51°13.669 2°55.871 2.3 256 12.1 101970 100
2007-10-02 05:15:18 51°13.673 2°55.861 2.6 250 12.1 101970 100
2007-10-02 05:15:23 51°13.677 2°55.851 2.3 255 12.1 101980 100
2007-10-02 05:15:28 51°13.681 2°55.842 1.4 247 12.1 101980 100
2007-10-02 05:15:33 51°13.684 2°55.833 1.9 256 12.1 101980 100
2007-10-02 05:15:38 51°13.688 2°55.825 1.6 242 12.1 101980 100
2007-10-02 05:15:43 51°13.691 2°55.816 2 22 12.1 101980 100
2007-10-02 05:15:48 51°13.694 2°55.808 2 39 12.1 101980 100
2007-10-02 05:15:53 51°13.697 2°55.8 2.1 21 12.1 101970 100
2007-10-02 05:15:58 51°13.699 2°55.792 1.8 236 12.1 101970 100
2007-10-02 05:16:03 51°13.702 2°55.784 1.3 19 12.1 101980 100
2007-10-02 05:16:08 51°13.704 2°55.777 1.5 250 12.1 101980 100
2007-10-02 05:16:13 51°13.706 2°55.769 1.6 247 12.1 101970 100
2007-10-02 05:16:18 51°13.708 2°55.762 1.9 243 12.1 101970 100
2007-10-02 05:16:23 51°13.71 2°55.754 1.5 23 12.1 101970 100
2007-10-02 05:16:28 51°13.712 2°55.747 1.5 39 12.1 101970 100
2007-10-02 05:16:33 51°13.714 2°55.741 2 20 12.1 101980 100
2007-10-02 05:16:38 51°13.715 2°55.734 2.3 240 12.1 101980 100
2007-10-02 05:16:43 51°13.716 2°55.728 2.4 21 12.1 101980 100
2007-10-02 05:16:48 51°13.718 2°55.722 1.8 237 12.1 101980 100
2007-10-02 05:16:53 51°13.719 2°55.716 1.7 319 12.1 101980 100
2007-10-02 05:16:58 51°13.72 2°55.711 1.8 341 12.1 101980 100
2007-10-02 05:17:02 51°13.72 2°55.708 1.9 339 12.1 101980 100
2007-10-02 05:17:07 51°13.721 2°55.704 2.3 328 12.1 101980 100
2007-10-02 05:17:12 51°13.722 2°55.701 2.1 335 12.1 101970 100
2007-10-02 05:17:17 51°13.722 2°55.697 2.7 328 12.1 101970 100
2007-10-02 05:17:22 51°13.723 2°55.695 1.9 331 12.1 101980 100
2007-10-02 05:17:27 51°13.723 2°55.693 2.9 333 12.1 101980 100
2007-10-02 05:17:32 51°13.724 2°55.691 3.5 325 12.1 101980 100
2007-10-02 05:17:37 51°13.724 2°55.69 2.3 333 12.1 101980 100
2007-10-02 05:17:42 51°13.725 2°55.689 2.5 332 12.1 101980 100
2007-10-02 05:17:47 51°13.725 2°55.688 4 333 12.1 101980 100
2007-10-02 05:17:52 51°13.726 2°55.688 4.2 337 12.1 101980 100
2007-10-02 05:17:56 51°13.726 2°55.688 3.5 354 12.1 101980 100
2007-10-02 05:18:01 51°13.727 2°55.688 3.1 352 12.1 101980 100
2007-10-02 05:18:06 51°13.728 2°55.689 3 355 12.1 101980 100
2007-10-02 05:18:11 51°13.728 2°55.689 3.1 -999 12.1 101980 100
2007-10-02 05:18:16 51°13.729 2°55.691 3.3 4 12.1 101980 100
2007-10-02 05:18:21 51°13.731 2°55.692 3.8 358 12.1 101970 100
2007-10-02 05:18:26 51°13.732 2°55.694 4.8 346 12.1 101970 100
2007-10-02 05:18:31 51°13.734 2°55.696 4.4 353 12.1 101980 100
2007-10-02 05:18:36 51°13.736 2°55.697 3.6 356 12.1 101980 100
2007-10-02 05:18:41 51°13.738 2°55.699 3.9 353 12.1 101980 100
2007-10-02 05:18:45 51°13.74 2°55.7 3.8 -999 12.1 101980 100
2007-10-02 05:18:50 51°13.742 2°55.701 3.7 357 12.1 101970 100
2007-10-02 05:18:55 51°13.744 2°55.702 4.7 7 12.1 101970 100
2007-10-02 05:19:00 51°13.746 2°55.703 4.1 6 12.1 101980 100
2007-10-02 05:19:05 51°13.748 2°55.704 4.2 13 12.1 101980 100
2007-10-02 05:19:10 51°13.749 2°55.704 4 13 12.1 101970 100
2007-10-02 05:19:15 51°13.749 2°55.704 4.9 11 12.1 101970 100
2007-10-02 05:19:20 51°13.748 2°55.703 3.7 19 12.1 101970 100
2007-10-02 05:19:25 51°13.747 2°55.703 2.8 31 12.1 101970 100
2007-10-02 05:19:30 51°13.746 2°55.702 2.6 26 12.1 101970 100
2007-10-02 05:19:34 51°13.744 2°55.702 3.4 20 12.1 101970 100
2007-10-02 05:19:40 51°13.742 2°55.701 3.6 33 12.1 101980 100
2007-10-02 05:19:46 51°13.739 2°55.7 3.1 27 12.1 101980 100
2007-10-02 05:19:51 51°13.737 2°55.7 3.6 32 12.1 101980 100
2007-10-02 05:19:57 51°13.736 2°55.699 3.2 11 12.1 101980 100
2007-10-02 05:20:02 51°13.736 2°55.699 2.7 13 12.1 101980 100
2007-10-02 05:20:08 51°13.738 2°55.698 3.4 24 12.1 101980 100
2007-10-02 05:20:13 51°13.741 2°55.697 3 21 12.1 101980 100
2007-10-02 05:20:18 51°13.745 2°55.695 2.9 27 12.1 101980 100
2007-10-02 05:20:23 51°13.75 2°55.692 2.9 3 12.1 101980 100
2007-10-02 05:20:28 51°13.757 2°55.689 3.2 355 12.1 101980 100
2007-10-02 05:20:33 51°13.764 2°55.685 3.2 7 12.1 101980 100
2007-10-02 05:20:38 51°13.771 2°55.681 3.1 9 12.1 101980 100
2007-10-02 05:20:42 51°13.777 2°55.678 3.5 12 12.1 101980 100
2007-10-02 05:20:47 51°13.784 2°55.673 2.9 355 12.1 101980 100
2007-10-02 05:20:52 51°13.792 2°55.668 2.9 357 12.1 101980 100
2007-10-02 05:20:57 51°13.8 2°55.663 2.8 357 12.1 101980 100
2007-10-02 05:21:02 51°13.809 2°55.657 3.1 7 12.1 101980 100
2007-10-02 05:21:07 51°13.819 2°55.651 2.4 356 12.1 101980 100
2007-10-02 05:21:12 51°13.829 2°55.645 3 350 12.1 101980 100
2007-10-02 05:21:17 51°13.839 2°55.638 2.9 2 12.1 101980 100
2007-10-02 05:21:22 51°13.849 2°55.631 3.1 -999 12.1 101980 100
2007-10-02 05:21:27 51°13.86 2°55.623 2 335 12.1 101980 100
2007-10-02 05:21:32 51°13.87 2°55.616 2.7 350 12.1 101980 100
2007-10-02 05:21:36 51°13.879 2°55.609 4 352 12.1 101980 100
2007-10-02 05:21:42 51°13.892 2°55.6 3.6 10 12.1 101980 100
2007-10-02 05:21:46 51°13.901 2°55.593 3.2 11 12.1 101980 100
2007-10-02 05:21:52 51°13.914 2°55.584 3.2 4 12.1 101980 100
2007-10-02 05:21:57 51°13.926 2°55.576 3.1 353 12.1 101980 100
2007-10-02 05:22:01 51°13.934 2°55.569 2.9 -999 12.1 101980 100
2007-10-02 05:22:06 51°13.945 2°55.561 3.2 2 12.1 101980 100
2007-10-02 05:22:11 51°13.956 2°55.553 2.7 17 12.1 101980 100
2007-10-02 05:22:16 51°13.967 2°55.544 3.6 355 12.1 101980 100
2007-10-02 05:22:21 51°13.978 2°55.536 3.8 360 12.1 101980 100
2007-10-02 05:22:26 51°13.989 2°55.528 3.2 1 12.1 101980 100
2007-10-02 05:22:30 51°13.997 2°55.521 3 359 12.1 101980 100
2007-10-02 05:22:36 51°14.01 2°55.512 2.6 358 12.1 101980 100
2007-10-02 05:22:41 51°14.02 2°55.504 2.2 6 12.1 101980 100
2007-10-02 05:22:46 51°14.03 2°55.496 2.7 6 12.1 101980 100
2007-10-02 05:22:50 51°14.038 2°55.49 2.7 358 12.1 101980 100
2007-10-02 05:22:55 51°14.048 2°55.483 2.9 357 12.1 101980 100
2007-10-02 05:23:01 51°14.059 2°55.474 4.7 360 12.1 101980 100
2007-10-02 05:23:06 51°14.068 2°55.467 3.6 2 12.1 101980 100
2007-10-02 05:23:11 51°14.077 2°55.46 3.8 16 12.1 101980 100
2007-10-02 05:23:17 51°14.087 2°55.452 2.9 17 12.1 101980 100
2007-10-02 05:23:21 51°14.094 2°55.446 3.4 23 12.1 101980 100
2007-10-02 05:23:26 51°14.103 2°55.439 3.3 20 12.1 101980 100
2007-10-02 05:23:31 51°14.111 2°55.431 3.4 13 12.1 101980 100
2007-10-02 05:23:37 51°14.121 2°55.422 2.8 13 12.1 101980 100
2007-10-02 05:23:41 51°14.128 2°55.417 3.3 358 12.1 101980 100
2007-10-02 05:23:46 51°14.136 2°55.409 2.7 -999 12.1 101980 100
2007-10-02 05:23:52 51°14.146 2°55.4 2.9 2 12.1 101980 100
2007-10-02 05:23:57 51°14.154 2°55.392 3.3 2 12.1 101980 100
2007-10-02 05:24:02 51°14.162 2°55.383 3.6 3 12.1 101980 100
2007-10-02 05:24:07 51°14.171 2°55.374 2.3 358 12.1 101980 100
2007-10-02 05:24:13 51°14.181 2°55.363 3 1 12.1 101980 100
2007-10-02 05:24:18 51°14.19 2°55.352 2.5 352 12.1 101980 100
2007-10-02 05:24:22 51°14.197 2°55.344 2.7 353 12.1 101980 100
2007-10-02 05:24:28 51°14.208 2°55.33 3 11 12.1 101980 100
2007-10-02 05:24:33 51°14.218 2°55.318 3.2 11 12.1 101980 100
2007-10-02 05:24:38 51°14.227 2°55.305 2.8 9 12.1 101980 100
2007-10-02 05:24:42 51°14.235 2°55.294 2.9 5 12.1 101980 100
2007-10-02 05:24:47 51°14.245 2°55.28 3.1 351 12.1 101980 100
2007-10-02 05:24:52 51°14.255 2°55.265 2.8 354 12.1 101980 100
2007-10-02 05:24:57 51°14.264 2°55.25 2.1 354 12.1 101980 100
2007-10-02 05:25:02 51°14.273 2°55.234 2.2 351 12.1 101980 100
2007-10-02 05:25:06 51°14.28 2°55.22 3.3 353 12.1 101980 100
2007-10-02 05:25:12 51°14.291 2°55.199 3.5 351 12.1 101980 100
2007-10-02 05:25:17 51°14.3 2°55.181 2.3 4 12.1 101980 100
2007-10-02 05:25:21 51°14.307 2°55.166 2.7 349 12.1 101980 100
2007-10-02 05:25:26 51°14.316 2°55.146 2.7 1 12.1 101980 100
2007-10-02 05:25:31 51°14.325 2°55.126 2.6 4 12.1 101980 100
2007-10-02 05:25:36 51°14.335 2°55.106 2.6 356 12.1 101980 100
2007-10-02 05:25:41 51°14.346 2°55.085 3.1 1 12.1 101980 100
2007-10-02 05:25:46 51°14.356 2°55.064 3.1 2 12.1 101980 100
2007-10-02 05:25:50 51°14.365 2°55.047 3.6 358 12.1 101980 100
2007-10-02 05:25:55 51°14.377 2°55.027 3.3 351 12.1 101980 100
2007-10-02 05:26:00 51°14.389 2°55.007 4 352 12.1 101980 100
2007-10-02 05:26:05 51°14.403 2°54.988 5.1 356 12.1 101980 100
2007-10-02 05:26:10 51°14.416 2°54.97 4.3 357 12.1 101980 100
2007-10-02 05:26:14 51°14.427 2°54.956 5.1 -999 12.1 101980 100
2007-10-02 05:26:20 51°14.444 2°54.936 5.6 359 12.1 101980 100
2007-10-02 05:26:25 51°14.459 2°54.92 5.3 358 12.1 101980 100
2007-10-02 05:26:29 51°14.471 2°54.909 6 358 12.1 101970 100
2007-10-02 05:26:34 51°14.487 2°54.894 5.5 1 12.1 101970 100
2007-10-02 05:26:38 51°14.499 2°54.883 5.9 359 12.1 101980 100
2007-10-02 05:26:44 51°14.517 2°54.866 5.2 3 12.1 101980 100
2007-10-02 05:26:49 51°14.533 2°54.852 5.5 1 12.1 101970 100
2007-10-02 05:26:54 51°14.549 2°54.839 6.4 2 12.1 101970 100
2007-10-02 05:26:58 51°14.562 2°54.829 6.1 2 12.1 101970 100
2007-10-02 05:27:04 51°14.58 2°54.813 6.2 4 12.1 101970 100
2007-10-02 05:27:09 51°14.596 2°54.801 5.9 5 12.1 101970 100
2007-10-02 05:27:14 51°14.612 2°54.788 6.8 357 12.1 101970 100
2007-10-02 05:27:19 51°14.627 2°54.775 7.2 1 12.1 101970 100
2007-10-02 05:27:24 51°14.643 2°54.761 5.9 2 12.1 101970 100
2007-10-02 05:27:29 51°14.658 2°54.747 5.4 3 12.1 101980 100
2007-10-02 05:27:34 51°14.673 2°54.733 5.3 4 12.1 101980 100
2007-10-02 05:27:39 51°14.688 2°54.719 6.1 358 12.1 101970 100
2007-10-02 05:27:44 51°14.703 2°54.705 6.7 359 12.1 101970 100
2007-10-02 05:27:49 51°14.718 2°54.692 5.7 2 12.1 101970 100
2007-10-02 05:27:54 51°14.733 2°54.678 5.9 5 12.1 101970 100
2007-10-02 05:27:59 51°14.748 2°54.665 5.8 4 12.2 101970 100
2007-10-02 05:28:04 51°14.763 2°54.651 6 360 12.2 101970 100
2007-10-02 05:28:09 51°14.779 2°54.636 6 1 12.2 101970 100
2007-10-02 05:28:14 51°14.794 2°54.623 6.6 360 12.2 101970 100
2007-10-02 05:28:18 51°14.806 2°54.611 6.3 2 12.2 101990 100
2007-10-02 05:28:24 51°14.824 2°54.595 5.7 3 12.2 101990 100
2007-10-02 05:28:29 51°14.84 2°54.582 6.6 2 12.2 101970 100
2007-10-02 05:28:34 51°14.856 2°54.57 6.6 358 12.2 101970 100
2007-10-02 05:28:39 51°14.872 2°54.558 7.2 359 12.2 101970 100
2007-10-02 05:28:44 51°14.888 2°54.546 7.4 -999 12.2 101970 100
2007-10-02 05:28:49 51°14.904 2°54.534 6.2 359 12.2 101980 100
2007-10-02 05:28:54 51°14.92 2°54.521 6.7 2 12.2 101980 100
2007-10-02 05:28:59 51°14.936 2°54.509 6.6 3 12.2 101980 100
2007-10-02 05:29:04 51°14.952 2°54.497 6.3 -999 12.2 101980 100
2007-10-02 05:29:09 51°14.968 2°54.485 6 2 12.3 101970 100
2007-10-02 05:29:14 51°14.984 2°54.473 6.6 4 12.3 101970 100
2007-10-02 05:29:19 51°15 2°54.46 6.2 5 12.2 101980 100
2007-10-02 05:29:24 51°15.015 2°54.447 6.8 3 12.2 101980 100
2007-10-02 05:29:29 51°15.031 2°54.435 6.5 358 12.2 101980 100
2007-10-02 05:29:34 51°15.047 2°54.421 6.6 8 12.2 101980 100
2007-10-02 05:29:38 51°15.059 2°54.411 7 6 12.2 101980 100
2007-10-02 05:29:44 51°15.077 2°54.393 6 3 12.2 101980 100
2007-10-02 05:29:49 51°15.093 2°54.379 6.4 3 12.3 101980 100
2007-10-02 05:29:54 51°15.108 2°54.365 6.5 7 12.3 101980 100
2007-10-02 05:29:58 51°15.12 2°54.353 6.3 8 12.3 101970 100
2007-10-02 05:30:04 51°15.138 2°54.336 4.9 6 12.3 101970 100
2007-10-02 05:30:09 51°15.154 2°54.322 6.1 10 12.3 101970 100
2007-10-02 05:30:14 51°15.169 2°54.309 5.8 4 12.3 101970 100
2007-10-02 05:30:19 51°15.184 2°54.295 5.3 1 12.3 101970 100
2007-10-02 05:30:24 51°15.199 2°54.281 5.8 2 12.3 101970 100
2007-10-02 05:30:29 51°15.215 2°54.268 5.9 1 12.3 101970 100
2007-10-02 05:30:34 51°15.23 2°54.253 5.8 5 12.3 101970 100
2007-10-02 05:30:39 51°15.245 2°54.24 5.7 6 12.3 101980 100
2007-10-02 05:30:44 51°15.26 2°54.226 6 5 12.3 101980 100
2007-10-02 05:30:49 51°15.275 2°54.211 6.1 5 12.3 101980 100
2007-10-02 05:30:54 51°15.29 2°54.197 5.8 7 12.3 101980 100
2007-10-02 05:30:58 51°15.302 2°54.186 5.4 6 12.3 101980 100
2007-10-02 05:31:04 51°15.32 2°54.169 5.5 2 12.3 101980 100
2007-10-02 05:31:09 51°15.335 2°54.155 5.1 4 12.3 101980 100
2007-10-02 05:31:14 51°15.35 2°54.14 6.9 4 12.3 101980 100
2007-10-02 05:31:19 51°15.365 2°54.126 6.6 4 12.3 101970 100
2007-10-02 05:31:24 51°15.379 2°54.112 6.8 5 12.3 101970 100
2007-10-02 05:31:29 51°15.394 2°54.098 5.8 9 12.3 101970 100
2007-10-02 05:31:34 51°15.409 2°54.084 6.5 3 12.3 101970 100
2007-10-02 05:31:39 51°15.424 2°54.07 5.9 5 12.3 101990 100
2007-10-02 05:31:44 51°15.44 2°54.056 5.9 7 12.3 101990 100
2007-10-02 05:31:49 51°15.455 2°54.042 5.6 6 12.3 101970 100
2007-10-02 05:31:54 51°15.47 2°54.028 5.4 2 12.3 101970 100
2007-10-02 05:31:58 51°15.482 2°54.016 5.7 3 12.3 101980 100
2007-10-02 05:32:04 51°15.5 2°54 5.7 2 12.3 101980 100
2007-10-02 05:32:09 51°15.516 2°53.985 5.8 1 12.3 101970 100
2007-10-02 05:32:14 51°15.531 2°53.971 5.3 3 12.3 101970 100
2007-10-02 05:32:19 51°15.546 2°53.958 5.5 3 12.3 101970 100
2007-10-02 05:32:24 51°15.562 2°53.944 5.5 3 12.3 101970 100
2007-10-02 05:32:29 51°15.578 2°53.931 5.7 4 12.3 101970 100
2007-10-02 05:32:34 51°15.594 2°53.917 6 2 12.3 101970 100
2007-10-02 05:32:39 51°15.609 2°53.904 5.8 6 12.3 101980 100
2007-10-02 05:32:44 51°15.625 2°53.89 6.2 -999 12.3 101980 100
2007-10-02 05:32:49 51°15.641 2°53.877 6 5 12.3 101980 100
2007-10-02 05:32:54 51°15.656 2°53.863 5.9 5 12.3 101980 100
2007-10-02 05:32:58 51°15.669 2°53.853 6.1 8 12.3 101980 100
2007-10-02 05:33:04 51°15.687 2°53.836 5.7 6 12.3 101980 100
2007-10-02 05:33:09 51°15.703 2°53.823 5.9 6 12.3 101980 100
2007-10-02 05:33:14 51°15.719 2°53.809 4.9 5 12.3 101980 100
2007-10-02 05:33:19 51°15.734 2°53.796 5.2 1 12.4 101970 100
2007-10-02 05:33:24 51°15.75 2°53.783 6.1 3 12.4 101970 100
2007-10-02 05:33:29 51°15.765 2°53.77 6.4 8 12.3 101970 100
2007-10-02 05:33:34 51°15.781 2°53.756 5.7 6 12.3 101970 100
2007-10-02 05:33:39 51°15.797 2°53.743 5.9 2 12.3 101970 100
2007-10-02 05:33:44 51°15.812 2°53.731 5.9 -999 12.3 101970 100
2007-10-02 05:33:49 51°15.827 2°53.717 6.4 3 12.3 101980 100
2007-10-02 05:33:54 51°15.843 2°53.704 6.1 5 12.3 101980 100
2007-10-02 05:33:59 51°15.858 2°53.691 6.4 5 12.4 101980 100
2007-10-02 05:34:04 51°15.874 2°53.678 6.3 3 12.4 101980 100
2007-10-02 05:34:09 51°15.889 2°53.665 6.7 4 12.4 101960 100
2007-10-02 05:34:14 51°15.905 2°53.652 6.6 3 12.4 101960 100
2007-10-02 05:34:18 51°15.917 2°53.642 6.2 5 12.4 101970 100
2007-10-02 05:34:24 51°15.936 2°53.626 6.1 3 12.4 101970 100
2007-10-02 05:34:29 51°15.951 2°53.613 7 3 12.4 101980 100
2007-10-02 05:34:34 51°15.967 2°53.601 6 5 12.4 101980 100
2007-10-02 05:34:39 51°15.982 2°53.587 6.4 6 12.4 101980 100
2007-10-02 05:34:44 51°15.998 2°53.574 4.4 4 12.4 101980 100
2007-10-02 05:34:49 51°16.013 2°53.562 6 8 12.4 101970 100
2007-10-02 05:34:54 51°16.029 2°53.549 6.5 7 12.4 101970 100
2007-10-02 05:34:59 51°16.044 2°53.536 6.3 7 12.4 101970 100
2007-10-02 05:35:04 51°16.059 2°53.523 5.4 2 12.4 101970 100
2007-10-02 05:35:09 51°16.075 2°53.51 6.8 1 12.4 101980 100
2007-10-02 05:35:14 51°16.091 2°53.497 6.9 4 12.4 101980 100
2007-10-02 05:35:19 51°16.106 2°53.485 6.5 5 12.3 101980 100
2007-10-02 05:35:24 51°16.122 2°53.472 6.5 3 12.3 101980 100
2007-10-02 05:35:29 51°16.137 2°53.459 5.9 4 12.4 101980 100
2007-10-02 05:35:34 51°16.153 2°53.446 7.3 4 12.4 101980 100
2007-10-02 05:35:38 51°16.165 2°53.435 7.7 4 12.4 101970 100
2007-10-02 05:35:44 51°16.184 2°53.42 6.4 5 12.4 101970 100
2007-10-02 05:35:49 51°16.199 2°53.407 6.2 6 12.4 101970 100
2007-10-02 05:35:54 51°16.215 2°53.394 6.1 1 12.4 101970 100
2007-10-02 05:35:58 51°16.227 2°53.384 6.8 5 12.4 101980 100
2007-10-02 05:36:04 51°16.246 2°53.368 6.8 5 12.4 101980 100
2007-10-02 05:36:09 51°16.262 2°53.355 6.7 -999 12.4 101970 100
2007-10-02 05:36:14 51°16.277 2°53.343 7.1 3 12.4 101970 100
2007-10-02 05:36:19 51°16.293 2°53.33 6.4 4 12.4 101980 100
2007-10-02 05:36:24 51°16.308 2°53.316 7.4 5 12.4 101980 100
2007-10-02 05:36:29 51°16.323 2°53.304 6.7 7 12.4 101970 100
2007-10-02 05:36:34 51°16.339 2°53.291 6.4 5 12.4 101970 100
2007-10-02 05:36:39 51°16.354 2°53.278 5.4 3 12.4 101960 100
2007-10-02 05:36:44 51°16.37 2°53.265 6.7 2 12.4 101960 100
2007-10-02 05:36:49 51°16.385 2°53.253 6.3 2 12.4 101980 100
2007-10-02 05:36:54 51°16.401 2°53.24 6.9 7 12.4 101980 100
2007-10-02 05:36:58 51°16.413 2°53.229 7 6 12.4 101980 100
2007-10-02 05:37:04 51°16.432 2°53.214 6.2 6 12.4 101980 100
2007-10-02 05:37:09 51°16.447 2°53.201 5.7 4 12.4 101970 100
2007-10-02 05:37:14 51°16.463 2°53.188 6.3 5 12.4 101970 100
2007-10-02 05:37:19 51°16.479 2°53.175 7.1 4 12.4 101970 100
2007-10-02 05:37:24 51°16.494 2°53.162 6.1 3 12.4 101970 100
2007-10-02 05:37:29 51°16.51 2°53.149 6.7 6 12.5 101970 100
2007-10-02 05:37:34 51°16.525 2°53.136 6.7 1 12.5 101970 100
2007-10-02 05:37:39 51°16.541 2°53.122 6.6 5 12.5 101980 100
2007-10-02 05:37:44 51°16.557 2°53.109 6.4 6 12.5 101980 100
2007-10-02 05:37:49 51°16.572 2°53.096 7 4 12.5 101960 100
2007-10-02 05:37:54 51°16.588 2°53.083 6.7 7 12.5 101960 100
2007-10-02 05:37:58 51°16.6 2°53.073 7 7 12.5 101970 100
2007-10-02 05:38:04 51°16.619 2°53.057 7.6 10 12.5 101970 100
2007-10-02 05:38:09 51°16.634 2°53.043 6.1 7 12.5 101960 100
2007-10-02 05:38:14 51°16.649 2°53.03 6.4 8 12.5 101960 100
2007-10-02 05:38:19 51°16.665 2°53.017 6.4 5 12.5 101970 100
2007-10-02 05:38:24 51°16.68 2°53.003 5.1 4 12.5 101970 100
2007-10-02 05:38:29 51°16.696 2°52.99 6 7 12.5 101970 100
2007-10-02 05:38:34 51°16.711 2°52.977 6.2 8 12.5 101970 100
2007-10-02 05:38:39 51°16.727 2°52.963 5.3 5 12.5 101960 100
2007-10-02 05:38:44 51°16.742 2°52.95 6.6 3 12.5 101960 100
2007-10-02 05:38:49 51°16.758 2°52.937 6.1 5 12.5 101970 100
2007-10-02 05:38:54 51°16.774 2°52.924 6.3 1 12.5 101970 100
2007-10-02 05:38:59 51°16.789 2°52.91 6.7 8 12.5 101970 100
2007-10-02 05:39:04 51°16.805 2°52.896 5.9 3 12.5 101970 100
2007-10-02 05:39:09 51°16.82 2°52.883 6.5 2 12.5 101980 100
2007-10-02 05:39:14 51°16.836 2°52.87 6.1 6 12.5 101980 100
2007-10-02 05:39:18 51°16.848 2°52.86 6.8 7 12.5 101970 100
2007-10-02 05:39:24 51°16.867 2°52.844 6.9 6 12.5 101970 100
2007-10-02 05:39:29 51°16.883 2°52.831 6.6 4 12.5 101970 100
2007-10-02 05:39:34 51°16.898 2°52.818 6.8 5 12.5 101970 100
2007-10-02 05:39:39 51°16.914 2°52.805 7.1 6 12.5 101960 100
2007-10-02 05:39:44 51°16.929 2°52.791 5.8 6 12.5 101960 100
2007-10-02 05:39:49 51°16.945 2°52.778 6.9 2 12.5 101970 100
2007-10-02 05:39:54 51°16.961 2°52.764 6.8 5 12.5 101970 100
2007-10-02 05:39:59 51°16.976 2°52.751 7.2 6 12.5 101960 100
2007-10-02 05:40:04 51°16.992 2°52.738 6.5 6 12.5 101960 100
2007-10-02 05:40:09 51°17.008 2°52.724 6.7 5 12.5 101970 100
2007-10-02 05:40:14 51°17.023 2°52.71 7.1 8 12.5 101970 100
2007-10-02 05:40:19 51°17.039 2°52.697 6.7 7 12.5 101960 100
2007-10-02 05:40:24 51°17.055 2°52.683 6.6 1 12.5 101960 100
2007-10-02 05:40:29 51°17.07 2°52.67 7 4 12.5 101980 100
2007-10-02 05:40:34 51°17.086 2°52.657 6.5 5 12.5 101980 100
2007-10-02 05:40:38 51°17.098 2°52.646 5.8 4 12.5 101970 100
2007-10-02 05:40:44 51°17.117 2°52.63 6.4 5 12.5 101970 100
2007-10-02 05:40:49 51°17.132 2°52.616 6.9 4 12.5 101970 100
2007-10-02 05:40:54 51°17.148 2°52.603 6.4 8 12.5 101970 100
2007-10-02 05:40:58 51°17.16 2°52.592 7.4 1 12.5 101970 100
2007-10-02 05:41:04 51°17.178 2°52.576 6.5 6 12.5 101970 100
2007-10-02 05:41:09 51°17.193 2°52.562 7 7 12.6 101970 100
2007-10-02 05:41:14 51°17.209 2°52.549 6.7 7 12.6 101970 100
2007-10-02 05:41:19 51°17.224 2°52.536 6.4 8 12.6 101960 100
2007-10-02 05:41:24 51°17.239 2°52.522 6.8 7 12.6 101960 100
2007-10-02 05:41:29 51°17.255 2°52.509 6 4 12.6 101960 100
2007-10-02 05:41:34 51°17.27 2°52.495 6.9 8 12.6 101960 100
2007-10-02 05:41:39 51°17.285 2°52.482 7.3 9 12.5 101970 100
2007-10-02 05:41:44 51°17.301 2°52.467 6 5 12.5 101970 100
2007-10-02 05:41:49 51°17.316 2°52.454 6.6 7 12.5 101970 100
2007-10-02 05:41:54 51°17.331 2°52.441 6.9 6 12.5 101970 100
2007-10-02 05:41:58 51°17.344 2°52.43 5.8 7 12.5 101960 100
2007-10-02 05:42:04 51°17.363 2°52.414 6.7 4 12.5 101960 100
2007-10-02 05:42:09 51°17.378 2°52.4 6.8 4 12.5 101970 100
2007-10-02 05:42:14 51°17.393 2°52.386 6.7 7 12.5 101970 100
2007-10-02 05:42:19 51°17.409 2°52.373 7 3 12.6 101970 100
2007-10-02 05:42:24 51°17.425 2°52.361 5.8 6 12.6 101970 100
2007-10-02 05:42:29 51°17.44 2°52.347 7 6 12.6 101960 100
2007-10-02 05:42:34 51°17.456 2°52.334 7.6 6 12.6 101960 100
2007-10-02 05:42:39 51°17.472 2°52.321 7.5 4 12.5 101980 100
2007-10-02 05:42:44 51°17.488 2°52.308 7 6 12.5 101980 100
2007-10-02 05:42:49 51°17.504 2°52.295 6.6 6 12.6 101960 100
2007-10-02 05:42:54 51°17.52 2°52.282 6.7 7 12.6 101960 100
2007-10-02 05:42:58 51°17.532 2°52.271 5.5 4 12.6 101970 100
2007-10-02 05:43:04 51°17.551 2°52.255 7 3 12.6 101970 100
2007-10-02 05:43:09 51°17.567 2°52.242 6.1 3 12.6 101960 100
2007-10-02 05:43:14 51°17.583 2°52.228 6.1 5 12.6 101960 100
2007-10-02 05:43:19 51°17.598 2°52.215 6.4 6 12.6 101970 100
2007-10-02 05:43:24 51°17.614 2°52.202 6.7 1 12.6 101970 100
2007-10-02 05:43:29 51°17.63 2°52.19 6.3 5 12.6 101970 100
2007-10-02 05:43:34 51°17.646 2°52.176 6.8 7 12.6 101970 100
2007-10-02 05:43:39 51°17.661 2°52.163 5.8 6 12.6 101960 100
2007-10-02 05:43:44 51°17.677 2°52.15 6.3 3 12.6 101960 100
2007-10-02 05:43:49 51°17.693 2°52.137 6.6 1 12.6 101980 100
2007-10-02 05:43:54 51°17.709 2°52.123 6.7 1 12.6 101980 100
2007-10-02 05:43:59 51°17.724 2°52.11 7.2 2 12.6 101970 100
2007-10-02 05:44:04 51°17.74 2°52.096 6.6 2 12.6 101970 100
2007-10-02 05:44:09 51°17.755 2°52.083 7.1 4 12.6 101970 100
2007-10-02 05:44:14 51°17.771 2°52.07 5.9 5 12.6 101970 100
2007-10-02 05:44:18 51°17.784 2°52.06 6.5 2 12.6 101980 100
2007-10-02 05:44:24 51°17.802 2°52.044 7.1 2 12.6 101980 100
2007-10-02 05:44:29 51°17.818 2°52.031 7.4 4 12.6 101980 100
2007-10-02 05:44:34 51°17.834 2°52.018 7.2 2 12.6 101980 100
2007-10-02 05:44:39 51°17.85 2°52.004 7.1 1 12.6 101970 100
2007-10-02 05:44:44 51°17.866 2°51.991 6.9 4 12.6 101970 100
2007-10-02 05:44:49 51°17.882 2°51.978 7.2 -999 12.6 101980 100
2007-10-02 05:44:54 51°17.898 2°51.965 6.7 4 12.6 101980 100
2007-10-02 05:44:59 51°17.913 2°51.952 6.8 4 12.6 101970 100
2007-10-02 05:45:04 51°17.929 2°51.939 6.8 4 12.6 101970 100
2007-10-02 05:45:09 51°17.945 2°51.926 6.6 6 12.6 101980 100
2007-10-02 05:45:14 51°17.961 2°51.912 6.3 7 12.6 101980 100
2007-10-02 05:45:19 51°17.977 2°51.9 6.1 6 12.6 101970 100
2007-10-02 05:45:24 51°17.993 2°51.887 5.5 4 12.6 101970 100
2007-10-02 05:45:29 51°18.009 2°51.874 6 5 12.6 101970 100
2007-10-02 05:45:34 51°18.025 2°51.861 5.9 7 12.6 101970 100
2007-10-02 05:45:38 51°18.038 2°51.851 5.5 4 12.7 101990 100
2007-10-02 05:45:44 51°18.058 2°51.835 6.6 5 12.7 101990 100
2007-10-02 05:45:49 51°18.074 2°51.823 6.7 4 12.7 101970 100
2007-10-02 05:45:54 51°18.09 2°51.81 6.3 4 12.7 101970 100
2007-10-02 05:45:58 51°18.103 2°51.8 6.7 4 12.7 101970 100
2007-10-02 05:46:04 51°18.122 2°51.785 7.3 5 12.7 101970 100
2007-10-02 05:46:09 51°18.138 2°51.772 6.7 3 12.7 101980 100
2007-10-02 05:46:14 51°18.155 2°51.76 6.6 7 12.7 101980 100
2007-10-02 05:46:19 51°18.17 2°51.747 6.3 5 12.7 101970 100
2007-10-02 05:46:24 51°18.186 2°51.734 5.1 5 12.7 101970 100
2007-10-02 05:46:29 51°18.201 2°51.72 5.5 5 12.7 101980 100
2007-10-02 05:46:34 51°18.217 2°51.707 5.8 5 12.7 101980 100
2007-10-02 05:46:39 51°18.233 2°51.693 6.3 3 12.7 101980 100
2007-10-02 05:46:44 51°18.248 2°51.679 5.8 2 12.7 101980 100
2007-10-02 05:46:49 51°18.264 2°51.666 5.4 4 12.7 101980 100
2007-10-02 05:46:54 51°18.28 2°51.653 6.8 1 12.7 101980 100
2007-10-02 05:46:58 51°18.293 2°51.642 7.2 2 12.7 101970 100
2007-10-02 05:47:04 51°18.312 2°51.627 7.4 2 12.7 101970 100
2007-10-02 05:47:09 51°18.328 2°51.614 6.9 4 12.7 101980 100
2007-10-02 05:47:14 51°18.344 2°51.601 6.6 5 12.7 101980 100
2007-10-02 05:47:19 51°18.36 2°51.588 6.4 4 12.7 101980 100
2007-10-02 05:47:24 51°18.376 2°51.574 6.5 5 12.7 101980 100
2007-10-02 05:47:29 51°18.392 2°51.561 6.8 3 12.7 101970 100
2007-10-02 05:47:34 51°18.408 2°51.548 7.3 360 12.7 101970 100
2007-10-02 05:47:39 51°18.423 2°51.535 7.5 1 12.7 101980 100
2007-10-02 05:47:44 51°18.439 2°51.522 7.6 360 12.7 101980 100
2007-10-02 05:47:49 51°18.455 2°51.509 7.7 359 12.7 101970 100
2007-10-02 05:47:54 51°18.471 2°51.496 7.7 2 12.7 101970 100
2007-10-02 05:47:58 51°18.484 2°51.485 7.2 360 12.7 101980 100
2007-10-02 05:48:04 51°18.503 2°51.47 7.3 3 12.7 101980 100
2007-10-02 05:48:09 51°18.519 2°51.457 8 2 12.8 101980 100
2007-10-02 05:48:14 51°18.536 2°51.444 8 -999 12.8 101980 100
2007-10-02 05:48:19 51°18.552 2°51.431 8 -999 12.8 101970 100
2007-10-02 05:48:24 51°18.568 2°51.418 8.6 1 12.8 101970 100
2007-10-02 05:48:29 51°18.583 2°51.405 8 4 12.8 101980 100
2007-10-02 05:48:34 51°18.6 2°51.392 6.4 4 12.8 101980 100
2007-10-02 05:48:39 51°18.615 2°51.379 7.4 2 12.8 101970 100
2007-10-02 05:48:44 51°18.631 2°51.366 7.4 2 12.8 101970 100
2007-10-02 05:48:49 51°18.647 2°51.353 7.8 3 12.8 101970 100
2007-10-02 05:48:54 51°18.663 2°51.339 7.5 4 12.8 101970 100
2007-10-02 05:48:58 51°18.675 2°51.328 6.9 5 12.7 101970 100
2007-10-02 05:49:04 51°18.694 2°51.313 6.3 3 12.7 101970 100
2007-10-02 05:49:09 51°18.71 2°51.299 7.9 4 12.7 101960 100
2007-10-02 05:49:14 51°18.726 2°51.286 7.4 2 12.7 101960 100
2007-10-02 05:49:19 51°18.742 2°51.273 6.9 6 12.7 101980 100
2007-10-02 05:49:24 51°18.758 2°51.26 6.9 5 12.7 101980 100
2007-10-02 05:49:29 51°18.774 2°51.246 6.5 5 12.7 101980 100
2007-10-02 05:49:34 51°18.789 2°51.233 6.7 10 12.7 101980 100
2007-10-02 05:49:39 51°18.805 2°51.22 7.5 8 12.7 101970 100
2007-10-02 05:49:44 51°18.821 2°51.207 6.8 359 12.7 101970 100
2007-10-02 05:49:49 51°18.836 2°51.194 6.6 359 12.7 101980 100
2007-10-02 05:49:54 51°18.852 2°51.181 7.3 5 12.7 101980 100
2007-10-02 05:49:59 51°18.868 2°51.168 6.8 4 12.7 101970 100
2007-10-02 05:50:04 51°18.883 2°51.154 5.8 8 12.7 101970 100
2007-10-02 05:50:09 51°18.899 2°51.141 7.2 4 12.8 101970 100
2007-10-02 05:50:14 51°18.914 2°51.127 6.1 6 12.8 101970 100
2007-10-02 05:50:18 51°18.927 2°51.117 5.7 3 12.8 101990 100
2007-10-02 05:50:24 51°18.945 2°51.1 6 5 12.8 101990 100
2007-10-02 05:50:29 51°18.961 2°51.087 7 6 12.8 101970 100
2007-10-02 05:50:34 51°18.977 2°51.073 5.2 6 12.8 101970 100
2007-10-02 05:50:39 51°18.992 2°51.06 6.2 2 12.8 101970 100
2007-10-02 05:50:44 51°19.008 2°51.047 5.8 5 12.8 101970 100
2007-10-02 05:50:49 51°19.024 2°51.033 6 5 12.7 101980 100
2007-10-02 05:50:54 51°19.04 2°51.02 6.9 1 12.7 101980 100
2007-10-02 05:50:59 51°19.055 2°51.006 6 2 12.8 101980 100
2007-10-02 05:51:04 51°19.071 2°50.993 6.6 5 12.8 101980 100
2007-10-02 05:51:09 51°19.087 2°50.98 6.3 5 12.8 101980 100
2007-10-02 05:51:14 51°19.102 2°50.966 5.4 7 12.8 101980 100
2007-10-02 05:51:19 51°19.118 2°50.953 6.2 4 12.8 101980 100
2007-10-02 05:51:24 51°19.134 2°50.939 6.2 1 12.8 101980 100
2007-10-02 05:51:29 51°19.15 2°50.926 6.7 3 12.8 101980 100
2007-10-02 05:51:34 51°19.165 2°50.913 7.6 359 12.8 101980 100
2007-10-02 05:51:38 51°19.178 2°50.902 7.6 1 12.8 101970 100
2007-10-02 05:51:44 51°19.197 2°50.886 7.5 359 12.8 101970 100
2007-10-02 05:51:49 51°19.213 2°50.873 8.1 -999 12.8 101980 100
2007-10-02 05:51:54 51°19.228 2°50.86 7.2 3 12.8 101980 100
2007-10-02 05:51:58 51°19.241 2°50.849 7.4 -999 12.8 101960 100
2007-10-02 05:52:04 51°19.259 2°50.833 7.1 2 12.8 101960 100
2007-10-02 05:52:09 51°19.275 2°50.82 7.1 -999 12.8 101980 100
2007-10-02 05:52:14 51°19.29 2°50.806 7.6 2 12.8 101980 100
2007-10-02 05:52:19 51°19.306 2°50.793 7.3 2 12.8 101960 100
2007-10-02 05:52:25 51°19.324 2°50.777 8.6 1 12.8 101960 100
2007-10-02 05:52:29 51°19.336 2°50.766 6.5 4 12.8 101970 100
2007-10-02 05:52:34 51°19.352 2°50.754 6.5 5 12.8 101970 100
2007-10-02 05:52:39 51°19.368 2°50.74 7.1 3 12.8 101980 100
2007-10-02 05:52:44 51°19.383 2°50.727 8.4 1 12.8 101980 100
2007-10-02 05:52:49 51°19.398 2°50.713 6.7 3 12.8 101980 100
2007-10-02 05:52:54 51°19.414 2°50.7 6.5 2 12.8 101980 100
2007-10-02 05:52:58 51°19.426 2°50.689 6.7 3 12.9 101980 100
2007-10-02 05:53:04 51°19.445 2°50.673 6.5 2 12.9 101980 100
2007-10-02 05:53:09 51°19.46 2°50.659 7.2 357 12.9 101970 100
2007-10-02 05:53:14 51°19.476 2°50.646 6.8 3 12.9 101970 100
2007-10-02 05:53:19 51°19.491 2°50.633 8 2 12.9 101990 100
2007-10-02 05:53:24 51°19.506 2°50.62 7.5 3 12.9 101990 100
2007-10-02 05:53:29 51°19.521 2°50.606 7.8 360 12.8 101980 100
2007-10-02 05:53:34 51°19.537 2°50.592 7.9 3 12.8 101980 100
2007-10-02 05:53:39 51°19.552 2°50.58 8.3 5 12.9 101980 100
2007-10-02 05:53:44 51°19.567 2°50.566 7.6 5 12.9 101980 100
2007-10-02 05:53:49 51°19.583 2°50.553 7.6 -999 12.9 101960 100
2007-10-02 05:53:54 51°19.598 2°50.54 7.2 2 12.9 101960 100
2007-10-02 05:53:58 51°19.611 2°50.529 6.9 5 12.9 101970 100
2007-10-02 05:54:04 51°19.629 2°50.514 7.3 1 12.9 101970 100
2007-10-02 05:54:09 51°19.644 2°50.501 7.4 3 12.9 101970 100
2007-10-02 05:54:14 51°19.66 2°50.487 7.1 4 12.9 101970 100
2007-10-02 05:54:19 51°19.675 2°50.474 7 6 12.9 101980 100
2007-10-02 05:54:25 51°19.694 2°50.459 5.9 6 12.9 101980 100
2007-10-02 05:54:29 51°19.707 2°50.448 6.8 7 12.9 101980 100
2007-10-02 05:54:34 51°19.722 2°50.435 7.2 5 12.9 101980 100
2007-10-02 05:54:39 51°19.738 2°50.422 6.8 4 12.9 101980 100
2007-10-02 05:54:44 51°19.754 2°50.409 7.3 5 12.9 101980 100
2007-10-02 05:54:49 51°19.77 2°50.396 7.2 5 12.9 101970 100
2007-10-02 05:54:54 51°19.785 2°50.382 7.6 5 12.9 101970 100
2007-10-02 05:54:59 51°19.801 2°50.369 7.1 6 12.9 101990 100
2007-10-02 05:55:04 51°19.817 2°50.355 7 5 12.9 101990 100
2007-10-02 05:55:09 51°19.833 2°50.342 6.5 5 12.9 101970 100
2007-10-02 05:55:14 51°19.848 2°50.329 6 3 12.9 101970 100
2007-10-02 05:55:18 51°19.861 2°50.319 6.9 3 12.9 101980 100
2007-10-02 05:55:24 51°19.879 2°50.303 7.1 4 12.9 101980 100
2007-10-02 05:55:29 51°19.895 2°50.289 7.3 4 12.9 101980 100
2007-10-02 05:55:34 51°19.91 2°50.275 8.5 360 12.9 101980 100
2007-10-02 05:55:39 51°19.926 2°50.262 7.4 -999 12.9 101960 100
2007-10-02 05:55:44 51°19.942 2°50.248 8 2 12.9 101960 100
2007-10-02 05:55:49 51°19.958 2°50.235 8 2 13 101980 100
2007-10-02 05:55:54 51°19.974 2°50.222 7.7 2 13 101980 100
2007-10-02 05:55:59 51°19.99 2°50.209 8 2 13 101970 100
2007-10-02 05:56:04 51°20.006 2°50.197 8.4 1 13 101970 100
2007-10-02 05:56:09 51°20.021 2°50.184 7.7 3 13 101980 100
2007-10-02 05:56:14 51°20.037 2°50.171 7.4 2 13 101980 100
2007-10-02 05:56:19 51°20.053 2°50.158 7.4 359 12.9 101970 100
2007-10-02 05:56:24 51°20.07 2°50.146 6.8 8 12.9 101970 100
2007-10-02 05:56:29 51°20.085 2°50.132 7.1 1 13 101970 100
2007-10-02 05:56:34 51°20.1 2°50.117 6.9 5 13 101970 100
2007-10-02 05:56:38 51°20.112 2°50.106 6.8 7 12.9 101980 100
2007-10-02 05:56:44 51°20.13 2°50.088 7.3 7 12.9 101980 100
2007-10-02 05:56:49 51°20.144 2°50.072 6.5 6 12.9 101980 100
2007-10-02 05:56:54 51°20.159 2°50.056 7 7 12.9 101980 100
2007-10-02 05:56:58 51°20.17 2°50.043 5.9 5 13 101970 100
2007-10-02 05:57:04 51°20.188 2°50.023 6.9 1 13 101970 100
2007-10-02 05:57:09 51°20.202 2°50.007 6.5 5 13 101980 100
2007-10-02 05:57:14 51°20.217 2°49.991 6.8 4 13 101980 100
2007-10-02 05:57:19 51°20.231 2°49.975 6.4 6 13 101980 100
2007-10-02 05:57:24 51°20.246 2°49.958 6.5 3 13 101980 100
2007-10-02 05:57:29 51°20.26 2°49.942 6.4 5 13 101980 100
2007-10-02 05:57:34 51°20.275 2°49.926 6.6 2 13 101980 100
2007-10-02 05:57:39 51°20.29 2°49.91 6.3 4 13 101980 100
2007-10-02 05:57:44 51°20.304 2°49.894 7.2 7 13 101980 100
2007-10-02 05:57:49 51°20.319 2°49.878 7.6 8 13 101990 100
2007-10-02 05:57:54 51°20.333 2°49.862 6.2 9 13 101990 100
2007-10-02 05:57:59 51°20.348 2°49.845 6.6 7 13 101970 100
2007-10-02 05:58:04 51°20.362 2°49.829 6.2 6 13 101970 100
2007-10-02 05:58:09 51°20.377 2°49.814 7.3 9 13 101980 100
2007-10-02 05:58:14 51°20.392 2°49.798 6 6 13 101980 100
2007-10-02 05:58:18 51°20.403 2°49.785 7 11 13 101960 100
2007-10-02 05:58:24 51°20.421 2°49.766 7.3 9 13 101960 100
2007-10-02 05:58:29 51°20.436 2°49.75 6.9 8 13 101980 100
2007-10-02 05:58:34 51°20.451 2°49.734 5.9 5 13 101980 100
2007-10-02 05:58:39 51°20.466 2°49.718 6 6 13 101980 100
2007-10-02 05:58:44 51°20.481 2°49.703 7.3 8 13 101980 100
2007-10-02 05:58:49 51°20.495 2°49.686 7.5 10 13 101980 100
2007-10-02 05:58:54 51°20.511 2°49.671 7.7 7 13 101980 100
2007-10-02 05:58:59 51°20.525 2°49.655 7 11 13.1 101980 100
2007-10-02 05:59:04 51°20.541 2°49.639 7 6 13.1 101980 100
2007-10-02 05:59:09 51°20.556 2°49.623 6.1 6 13.1 101980 100
2007-10-02 05:59:14 51°20.571 2°49.608 6.1 8 13.1 101980 100
2007-10-02 05:59:19 51°20.586 2°49.592 7 6 13.1 101980 100
2007-10-02 05:59:24 51°20.601 2°49.576 6.9 9 13.1 101980 100
2007-10-02 05:59:29 51°20.616 2°49.561 8 9 13.1 101980 100
2007-10-02 05:59:34 51°20.63 2°49.544 5.3 7 13.1 101980 100
2007-10-02 05:59:38 51°20.642 2°49.531 5.8 6 13.1 101980 100
2007-10-02 05:59:44 51°20.66 2°49.512 6.6 3 13.1 101980 100
2007-10-02 05:59:49 51°20.674 2°49.496 6.5 5 13.1 101980 100
2007-10-02 05:59:54 51°20.689 2°49.479 7.4 5 13.1 101980 100
2007-10-02 05:59:58 51°20.7 2°49.465 7.7 7 13.1 101970 100
2007-10-02 06:00:04 51°20.717 2°49.446 7.3 7 13.1 101970 100
2007-10-02 06:00:09 51°20.731 2°49.429 7 7 13.1 101980 100
2007-10-02 06:00:14 51°20.746 2°49.414 7.6 5 13.1 101980 100
2007-10-02 06:00:19 51°20.76 2°49.398 8.4 8 13.1 101990 100
2007-10-02 06:00:24 51°20.774 2°49.383 7.8 8 13.1 101990 100
2007-10-02 06:00:29 51°20.787 2°49.367 7.7 10 13.1 101980 100
2007-10-02 06:00:34 51°20.801 2°49.352 6.6 7 13.1 101980 100
2007-10-02 06:00:39 51°20.815 2°49.337 7.2 8 13.1 101980 100
2007-10-02 06:00:44 51°20.828 2°49.322 6.4 5 13.1 101980 100
2007-10-02 06:00:49 51°20.842 2°49.307 7.3 6 13.1 101980 100
2007-10-02 06:00:54 51°20.855 2°49.292 6.5 6 13.1 101980 100
2007-10-02 06:00:59 51°20.869 2°49.277 7.6 7 13.1 101980 100
2007-10-02 06:01:04 51°20.882 2°49.263 6.8 7 13.1 101980 100
2007-10-02 06:01:09 51°20.896 2°49.248 6.5 6 13.2 101990 100
2007-10-02 06:01:14 51°20.909 2°49.233 5.9 5 13.2 101990 100
2007-10-02 06:01:19 51°20.922 2°49.218 6.8 4 13.1 101990 100
2007-10-02 06:01:24 51°20.936 2°49.204 5.8 4 13.1 101990 100
2007-10-02 06:01:29 51°20.949 2°49.189 7.1 3 13.1 101990 100
2007-10-02 06:01:34 51°20.962 2°49.173 7.4 4 13.1 101990 100
2007-10-02 06:01:39 51°20.975 2°49.158 7 5 13.1 101970 100
2007-10-02 06:01:44 51°20.987 2°49.143 5.7 7 13.1 101970 100
2007-10-02 06:01:49 51°20.998 2°49.127 8.3 11 13.1 101980 100
2007-10-02 06:01:54 51°21.01 2°49.112 6.2 6 13.1 101980 100
2007-10-02 06:01:59 51°21.021 2°49.095 7.9 8 13.1 101980 100
2007-10-02 06:02:04 51°21.032 2°49.079 6.7 9 13.1 101980 100
2007-10-02 06:02:09 51°21.043 2°49.062 6.8 7 13.1 101980 100
2007-10-02 06:02:14 51°21.053 2°49.045 7.7 10 13.1 101980 100
2007-10-02 06:02:19 51°21.064 2°49.028 7.4 9 13.1 101980 100
2007-10-02 06:02:24 51°21.074 2°49.01 7.8 10 13.1 101980 100
2007-10-02 06:02:29 51°21.084 2°48.993 7.7 11 13.1 101990 100
2007-10-02 06:02:34 51°21.095 2°48.975 7.2 8 13.1 101990 100
2007-10-02 06:02:39 51°21.105 2°48.958 8.5 10 13.1 101990 100
2007-10-02 06:02:44 51°21.116 2°48.941 8 12 13.1 101990 100
2007-10-02 06:02:49 51°21.127 2°48.925 6.9 13 13.1 101990 100
2007-10-02 06:02:54 51°21.137 2°48.907 8.2 11 13.1 101990 100
2007-10-02 06:02:59 51°21.149 2°48.89 7.5 9 13.1 101990 100
2007-10-02 06:03:04 51°21.159 2°48.872 7.1 13 13.1 101990 100
2007-10-02 06:03:09 51°21.171 2°48.855 7.1 7 13.1 101980 100
2007-10-02 06:03:14 51°21.182 2°48.836 8 9 13.1 101980 100
2007-10-02 06:03:19 51°21.193 2°48.818 8 10 13.1 101990 100
2007-10-02 06:03:24 51°21.204 2°48.799 8 13 13.1 101990 100
2007-10-02 06:03:29 51°21.216 2°48.78 6 11 13.1 101980 100
2007-10-02 06:03:34 51°21.227 2°48.761 6.6 5 13.1 101980 100
2007-10-02 06:03:39 51°21.239 2°48.742 6.1 7 13.1 101990 100
2007-10-02 06:03:44 51°21.25 2°48.723 6.6 10 13.1 101990 100
2007-10-02 06:03:49 51°21.262 2°48.704 6.7 6 13.1 101980 100
2007-10-02 06:03:54 51°21.274 2°48.684 6.3 5 13.1 101980 100
2007-10-02 06:03:59 51°21.286 2°48.665 7 8 13.1 101990 100
2007-10-02 06:04:04 51°21.297 2°48.645 8.4 9 13.1 101990 100
2007-10-02 06:04:09 51°21.31 2°48.627 8.5 10 13.1 101990 100
2007-10-02 06:04:14 51°21.321 2°48.606 7.9 9 13.1 101990 100
2007-10-02 06:04:19 51°21.334 2°48.588 8.1 10 13.1 101990 100
2007-10-02 06:04:24 51°21.345 2°48.568 7.1 9 13.1 101990 100
2007-10-02 06:04:29 51°21.358 2°48.549 5.5 7 13.1 101980 100
2007-10-02 06:04:34 51°21.37 2°48.53 7.8 11 13.1 101980 100
2007-10-02 06:04:38 51°21.379 2°48.514 8.4 9 13.2 101990 100
2007-10-02 06:04:44 51°21.393 2°48.491 7.4 10 13.2 101990 100
2007-10-02 06:04:49 51°21.405 2°48.471 8.7 14 13.2 101980 100
2007-10-02 06:04:54 51°21.417 2°48.452 6.3 2 13.2 101980 100
2007-10-02 06:04:58 51°21.426 2°48.436 6.4 9 13.2 101990 100
2007-10-02 06:05:04 51°21.44 2°48.413 6.9 7 13.2 101990 100
2007-10-02 06:05:09 51°21.452 2°48.394 7.7 9 13.1 101980 100
2007-10-02 06:05:14 51°21.464 2°48.375 7 7 13.1 101980 100
2007-10-02 06:05:19 51°21.476 2°48.355 7.5 2 13.2 101980 100
2007-10-02 06:05:24 51°21.489 2°48.336 7.5 8 13.2 101980 100
2007-10-02 06:05:29 51°21.501 2°48.317 7.5 7 13.2 101990 100
2007-10-02 06:05:34 51°21.513 2°48.3 7.4 4 13.2 101990 100
2007-10-02 06:05:39 51°21.525 2°48.28 6.6 7 13.1 101990 100
2007-10-02 06:05:44 51°21.538 2°48.262 6 8 13.1 101990 100
2007-10-02 06:05:49 51°21.549 2°48.243 7.9 9 13.1 101990 100
2007-10-02 06:05:54 51°21.562 2°48.224 7 6 13.1 101990 100
2007-10-02 06:05:59 51°21.575 2°48.207 6.9 5 13.1 101970 100
2007-10-02 06:06:04 51°21.588 2°48.188 7.3 7 13.1 101970 100
2007-10-02 06:06:09 51°21.602 2°48.172 7.2 7 13.2 101990 100
2007-10-02 06:06:14 51°21.615 2°48.155 8.3 8 13.2 101990 100
2007-10-02 06:06:18 51°21.627 2°48.142 7.1 5 13.2 101990 100
2007-10-02 06:06:24 51°21.644 2°48.122 7.6 3 13.2 101990 100
2007-10-02 06:06:29 51°21.658 2°48.107 6.9 5 13.2 101980 100
2007-10-02 06:06:34 51°21.673 2°48.093 6.5 4 13.2 101980 100
2007-10-02 06:06:39 51°21.688 2°48.079 7.3 3 13.1 101980 100
2007-10-02 06:06:44 51°21.704 2°48.065 8.5 359 13.1 101980 100
2007-10-02 06:06:49 51°21.719 2°48.051 10 -999 13.1 101980 100
2007-10-02 06:06:54 51°21.734 2°48.038 8.3 6 13.1 101980 100
2007-10-02 06:06:59 51°21.749 2°48.024 8.4 7 13.1 102000 100
2007-10-02 06:07:04 51°21.765 2°48.01 8.2 4 13.1 102000 100
2007-10-02 06:07:09 51°21.78 2°47.997 7.6 7 13.1 101980 100
2007-10-02 06:07:14 51°21.795 2°47.984 7.8 6 13.1 101980 100
2007-10-02 06:07:19 51°21.811 2°47.971 8.2 4 13.1 101970 100
2007-10-02 06:07:24 51°21.826 2°47.958 8.3 4 13.1 101970 100
2007-10-02 06:07:29 51°21.842 2°47.944 9.2 3 13.1 101990 100
2007-10-02 06:07:34 51°21.857 2°47.93 9.3 7 13.1 101990 100
2007-10-02 06:07:38 51°21.869 2°47.921 9.4 3 13.1 101970 100
2007-10-02 06:07:44 51°21.888 2°47.904 8.8 4 13.1 101970 100
2007-10-02 06:07:49 51°21.903 2°47.892 9.1 7 13.1 101990 100
2007-10-02 06:07:54 51°21.918 2°47.88 9.1 3 13.1 101990 100
2007-10-02 06:07:58 51°21.93 2°47.87 9.1 2 13.1 101980 100
2007-10-02 06:08:04 51°21.949 2°47.856 8.7 4 13.1 101980 100
2007-10-02 06:08:09 51°21.965 2°47.843 9.2 2 13.1 101980 100
2007-10-02 06:08:14 51°21.981 2°47.832 9.8 3 13.1 101980 100
2007-10-02 06:08:19 51°21.996 2°47.82 9.2 3 13.1 101980 100
2007-10-02 06:08:25 51°22.015 2°47.806 8.7 3 13.1 101980 100
2007-10-02 06:08:29 51°22.028 2°47.797 9.2 4 13.2 101970 100
2007-10-02 06:08:34 51°22.043 2°47.786 8.7 2 13.2 101970 100
2007-10-02 06:08:39 51°22.059 2°47.774 8.9 3 13.1 101960 100
2007-10-02 06:08:44 51°22.076 2°47.762 8.4 3 13.1 101960 100
2007-10-02 06:08:49 51°22.091 2°47.75 8.1 5 13.1 101980 100
2007-10-02 06:08:54 51°22.107 2°47.739 7.8 5 13.1 101980 100
2007-10-02 06:08:59 51°22.124 2°47.727 8.1 5 13.1 101980 100
2007-10-02 06:09:04 51°22.14 2°47.716 9.7 1 13.1 101980 100
2007-10-02 06:09:09 51°22.156 2°47.704 8.9 1 13.1 101970 100
2007-10-02 06:09:14 51°22.172 2°47.692 9.7 1 13.1 101970 100
2007-10-02 06:09:19 51°22.188 2°47.681 8.4 2 13.1 101970 100
2007-10-02 06:09:24 51°22.204 2°47.668 8.4 4 13.1 101970 100
2007-10-02 06:09:29 51°22.22 2°47.656 8.8 7 13.1 101980 100
2007-10-02 06:09:34 51°22.236 2°47.644 8.9 5 13.1 101980 100
2007-10-02 06:09:39 51°22.252 2°47.632 8.7 2 13.1 101980 100
2007-10-02 06:09:44 51°22.268 2°47.62 8.8 6 13.1 101980 100
2007-10-02 06:09:49 51°22.284 2°47.608 8.1 3 13.1 101980 100
2007-10-02 06:09:54 51°22.3 2°47.596 8.7 3 13.1 101980 100
2007-10-02 06:09:59 51°22.316 2°47.585 8.5 7 13.1 101970 100
2007-10-02 06:10:04 51°22.332 2°47.574 7.4 5 13.1 101970 100
2007-10-02 06:10:09 51°22.349 2°47.563 8.8 7 13.1 101980 100
2007-10-02 06:10:14 51°22.365 2°47.551 7.7 5 13.1 101980 100
2007-10-02 06:10:19 51°22.381 2°47.54 7.9 6 13.1 101990 100
2007-10-02 06:10:25 51°22.401 2°47.527 7.4 4 13.1 101990 100
2007-10-02 06:10:29 51°22.414 2°47.517 8.1 7 13.1 101970 100
2007-10-02 06:10:34 51°22.43 2°47.505 8.2 7 13.1 101970 100
2007-10-02 06:10:39 51°22.446 2°47.493 8.4 7 13.1 101990 100
2007-10-02 06:10:45 51°22.466 2°47.479 8 4 13.1 101990 100
2007-10-02 06:10:49 51°22.479 2°47.469 7.7 5 13.1 101990 100
2007-10-02 06:10:54 51°22.496 2°47.458 7.7 1 13.1 101990 100
2007-10-02 06:10:59 51°22.512 2°47.446 8.5 2 13.1 101990 100
2007-10-02 06:11:04 51°22.528 2°47.433 9 3 13.1 101990 100
2007-10-02 06:11:09 51°22.545 2°47.422 8.5 5 13.1 101990 100
2007-10-02 06:11:14 51°22.561 2°47.41 8.3 1 13.1 101990 100
2007-10-02 06:11:19 51°22.578 2°47.398 7.9 2 13.1 101990 100
2007-10-02 06:11:24 51°22.594 2°47.387 8.2 358 13.1 101990 100
2007-10-02 06:11:29 51°22.611 2°47.374 7 4 13.1 101970 100
2007-10-02 06:11:34 51°22.627 2°47.362 8.4 6 13.1 101970 100
2007-10-02 06:11:38 51°22.64 2°47.352 9.3 -999 13.1 101990 100
2007-10-02 06:11:44 51°22.659 2°47.338 7.7 4 13.1 101990 100
2007-10-02 06:11:49 51°22.676 2°47.326 8.2 4 13.1 101970 100
2007-10-02 06:11:54 51°22.692 2°47.315 8.8 359 13.1 101970 100
2007-10-02 06:11:58 51°22.706 2°47.305 8.3 2 13.2 101990 100
2007-10-02 06:12:04 51°22.725 2°47.291 9.9 1 13.2 101990 100
2007-10-02 06:12:09 51°22.742 2°47.279 9.2 358 13.1 101970 100
2007-10-02 06:12:14 51°22.758 2°47.267 8.7 1 13.1 101970 100
2007-10-02 06:12:19 51°22.775 2°47.254 9.3 360 13.1 101980 100
2007-10-02 06:12:25 51°22.794 2°47.239 8 5 13.1 101980 100
2007-10-02 06:12:29 51°22.806 2°47.229 9 3 13.2 101990 100
2007-10-02 06:12:34 51°22.823 2°47.217 9 1 13.2 101990 100
2007-10-02 06:12:39 51°22.839 2°47.204 8.7 2 13.2 101990 100
2007-10-02 06:12:44 51°22.855 2°47.192 8.3 3 13.2 101990 100
2007-10-02 06:12:49 51°22.871 2°47.18 9.2 4 13.2 101960 100
2007-10-02 06:12:54 51°22.887 2°47.167 9.7 5 13.2 101960 100
2007-10-02 06:12:59 51°22.904 2°47.155 9 3 13.2 101980 100
2007-10-02 06:13:04 51°22.92 2°47.143 9.1 2 13.2 101980 100
2007-10-02 06:13:09 51°22.936 2°47.131 9.8 359 13.2 101990 100
2007-10-02 06:13:14 51°22.952 2°47.119 9.8 2 13.2 101990 100
2007-10-02 06:13:18 51°22.965 2°47.109 8.9 2 13.2 101980 100
2007-10-02 06:13:24 51°22.984 2°47.093 10 356 13.2 101980 100
2007-10-02 06:13:29 51°23 2°47.081 9.8 1 13.2 101990 100
2007-10-02 06:13:34 51°23.016 2°47.069 9.6 1 13.2 101990 100
2007-10-02 06:13:39 51°23.032 2°47.056 9.9 360 13.2 101980 100
2007-10-02 06:13:44 51°23.048 2°47.044 10 1 13.2 101980 100
2007-10-02 06:13:49 51°23.064 2°47.031 9.5 359 13.2 101980 100
2007-10-02 06:13:54 51°23.081 2°47.02 10.8 358 13.2 101980 100
2007-10-02 06:13:59 51°23.096 2°47.008 9.7 -999 13.2 101980 100
2007-10-02 06:14:04 51°23.112 2°46.996 10.5 359 13.2 101980 100
2007-10-02 06:14:09 51°23.129 2°46.984 10.4 -999 13.2 101980 100
2007-10-02 06:14:14 51°23.145 2°46.973 10.3 359 13.2 101980 100
2007-10-02 06:14:19 51°23.161 2°46.961 9 359 13.1 101980 100
2007-10-02 06:14:24 51°23.177 2°46.951 10.4 -999 13.1 101980 100
2007-10-02 06:14:29 51°23.194 2°46.939 9.7 -999 13.2 101980 100
2007-10-02 06:14:34 51°23.21 2°46.929 10.3 2 13.2 101980 100
2007-10-02 06:14:38 51°23.223 2°46.919 10.3 1 13.1 101980 100
2007-10-02 06:14:44 51°23.243 2°46.906 10 359 13.1 101980 100
2007-10-02 06:14:49 51°23.259 2°46.895 10 359 13.2 101970 100
2007-10-02 06:14:54 51°23.275 2°46.883 8.7 358 13.2 101970 100
2007-10-02 06:14:58 51°23.288 2°46.874 9.7 358 13.1 101980 100
2007-10-02 06:15:04 51°23.308 2°46.86 10.4 -999 13.1 101980 100
2007-10-02 06:15:09 51°23.324 2°46.848 9 1 13.1 101970 100
2007-10-02 06:15:14 51°23.341 2°46.837 11 358 13.1 101970 100
2007-10-02 06:15:19 51°23.357 2°46.826 8.9 -999 13.1 101980 100
2007-10-02 06:15:24 51°23.373 2°46.815 9.2 -999 13.1 101980 100
2007-10-02 06:15:29 51°23.39 2°46.804 10 359 13.1 101970 100
2007-10-02 06:15:34 51°23.406 2°46.793 10.4 1 13.1 101970 100
2007-10-02 06:15:39 51°23.422 2°46.782 9.1 3 13.1 101990 100
2007-10-02 06:15:44 51°23.438 2°46.772 9.5 1 13.1 101990 100
2007-10-02 06:15:49 51°23.454 2°46.76 9.4 3 13.1 101990 100
2007-10-02 06:15:54 51°23.471 2°46.749 10 358 13.1 101990 100
2007-10-02 06:15:59 51°23.487 2°46.739 10.5 360 13.1 101970 100
2007-10-02 06:16:04 51°23.504 2°46.728 9.6 -999 13.1 101970 100
2007-10-02 06:16:09 51°23.52 2°46.718 8.9 2 13.1 101990 100
2007-10-02 06:16:14 51°23.537 2°46.707 9.2 357 13.1 101990 100
2007-10-02 06:16:18 51°23.551 2°46.699 10.9 359 13.1 101990 100
2007-10-02 06:16:24 51°23.571 2°46.688 10.6 -999 13.1 101990 100
2007-10-02 06:16:29 51°23.588 2°46.679 9.9 360 13.1 101980 100
2007-10-02 06:16:34 51°23.605 2°46.67 8.7 358 13.1 101980 100
2007-10-02 06:16:39 51°23.622 2°46.662 9.8 -999 13.1 101990 100
2007-10-02 06:16:44 51°23.639 2°46.654 9.1 358 13.1 101990 100
2007-10-02 06:16:49 51°23.657 2°46.646 10.7 358 13.1 101970 100
2007-10-02 06:16:54 51°23.674 2°46.639 9.9 359 13.1 101970 100
2007-10-02 06:16:59 51°23.691 2°46.632 10.9 1 13.1 101990 100
2007-10-02 06:17:04 51°23.708 2°46.625 10 1 13.1 101990 100
2007-10-02 06:17:09 51°23.726 2°46.619 9.1 359 13.1 101970 100
2007-10-02 06:17:14 51°23.743 2°46.611 10 358 13.1 101970 100
2007-10-02 06:17:18 51°23.757 2°46.605 11.3 357 13.1 101980 100
2007-10-02 06:17:24 51°23.777 2°46.596 10.6 359 13.1 101980 100
2007-10-02 06:17:29 51°23.794 2°46.587 10.2 358 13.1 101970 100
2007-10-02 06:17:34 51°23.811 2°46.579 9.7 1 13.1 101970 100
2007-10-02 06:17:39 51°23.828 2°46.571 9 2 13.1 102000 100
2007-10-02 06:17:44 51°23.845 2°46.561 10.1 -999 13.1 102000 100
2007-10-02 06:17:49 51°23.862 2°46.554 10 -999 13.1 101970 100
2007-10-02 06:17:54 51°23.879 2°46.545 9.4 -999 13.1 101970 100
2007-10-02 06:17:59 51°23.896 2°46.537 9.8 3 13.1 101980 100
2007-10-02 06:18:04 51°23.913 2°46.529 10.2 -999 13.1 101980 100
2007-10-02 06:18:09 51°23.93 2°46.52 10.7 360 13.1 101980 100
2007-10-02 06:18:14 51°23.947 2°46.512 9.6 2 13.1 101980 100
2007-10-02 06:18:18 51°23.96 2°46.505 9.2 2 13.1 101990 100
2007-10-02 06:18:24 51°23.981 2°46.495 9.8 1 13.1 101990 100
2007-10-02 06:18:29 51°23.997 2°46.487 8.9 1 13.1 101970 100
2007-10-02 06:18:34 51°24.014 2°46.479 9.4 360 13.1 101970 100
2007-10-02 06:18:39 51°24.03 2°46.47 9.8 359 13.1 101970 100
2007-10-02 06:18:44 51°24.047 2°46.461 11.2 -999 13.1 101970 100
2007-10-02 06:18:49 51°24.063 2°46.453 10.1 1 13 101980 100
2007-10-02 06:18:54 51°24.08 2°46.445 9.7 1 13 101980 100
2007-10-02 06:18:59 51°24.096 2°46.437 9.7 358 13.1 101980 100
2007-10-02 06:19:04 51°24.114 2°46.429 10.2 2 13.1 101980 100
2007-10-02 06:19:09 51°24.13 2°46.42 9.6 -999 13.1 101970 100
2007-10-02 06:19:14 51°24.147 2°46.41 9.7 -999 13.1 101970 100
2007-10-02 06:19:18 51°24.16 2°46.403 10.2 2 13.1 101990 100
2007-10-02 06:19:24 51°24.18 2°46.392 8.8 4 13.1 101990 100
2007-10-02 06:19:29 51°24.197 2°46.383 9 3 13.1 101980 100
2007-10-02 06:19:34 51°24.214 2°46.374 8.4 360 13.1 101980 100
2007-10-02 06:19:38 51°24.227 2°46.367 8.5 2 13.1 101980 100
2007-10-02 06:19:44 51°24.247 2°46.356 9.5 360 13.1 101980 100
2007-10-02 06:19:49 51°24.264 2°46.346 9.9 360 13.1 101980 100
2007-10-02 06:19:54 51°24.281 2°46.337 9.2 1 13.1 101980 100
2007-10-02 06:19:59 51°24.297 2°46.328 10.3 2 13.1 101980 100
2007-10-02 06:20:04 51°24.314 2°46.318 10.3 359 13.1 101980 100
2007-10-02 06:20:09 51°24.33 2°46.308 8.2 2 13.1 101980 100
2007-10-02 06:20:14 51°24.348 2°46.299 9.9 1 13.1 101980 100
2007-10-02 06:20:18 51°24.361 2°46.292 9.6 360 13.1 101980 100
2007-10-02 06:20:24 51°24.381 2°46.28 9.5 2 13.1 101980 100
2007-10-02 06:20:29 51°24.398 2°46.271 9.8 -999 13.1 101980 100
2007-10-02 06:20:34 51°24.415 2°46.261 9.3 -999 13.1 101980 100
2007-10-02 06:20:38 51°24.428 2°46.254 10.2 2 13.1 101990 100
2007-10-02 06:20:44 51°24.448 2°46.242 8.3 1 13.1 101990 100
2007-10-02 06:20:49 51°24.465 2°46.232 9.5 -999 13.1 101980 100
2007-10-02 06:20:54 51°24.481 2°46.222 9.2 1 13.1 101980 100
2007-10-02 06:20:59 51°24.498 2°46.213 8.9 1 13.1 101990 100
2007-10-02 06:21:04 51°24.514 2°46.203 8.4 1 13.1 101990 100
2007-10-02 06:21:09 51°24.531 2°46.194 8.9 1 13.1 101980 100
2007-10-02 06:21:14 51°24.548 2°46.185 9.2 -999 13.1 101980 100
2007-10-02 06:21:18 51°24.562 2°46.177 8 1 13.1 101980 100
2007-10-02 06:21:24 51°24.582 2°46.166 8 358 13.1 101980 100
2007-10-02 06:21:29 51°24.599 2°46.158 9.9 359 13.1 101990 100
2007-10-02 06:21:34 51°24.615 2°46.147 9.3 360 13.1 101990 100
2007-10-02 06:21:38 51°24.629 2°46.14 9.4 1 13 101990 100
2007-10-02 06:21:44 51°24.649 2°46.128 10.9 358 13 101990 100
2007-10-02 06:21:49 51°24.666 2°46.119 7.7 360 13.1 101990 100
2007-10-02 06:21:54 51°24.683 2°46.109 8.7 360 13.1 101990 100
2007-10-02 06:21:59 51°24.699 2°46.1 8.5 3 13 101980 100
2007-10-02 06:22:05 51°24.719 2°46.089 7.7 1 13 101980 100
2007-10-02 06:22:09 51°24.733 2°46.082 9.5 359 13.1 101990 100
2007-10-02 06:22:14 51°24.749 2°46.072 9.1 2 13.1 101990 100
2007-10-02 06:22:19 51°24.766 2°46.063 8.8 2 13.1 102000 100
2007-10-02 06:22:24 51°24.783 2°46.053 9.7 3 13.1 102000 100
2007-10-02 06:22:29 51°24.8 2°46.044 9.6 2 13.1 101970 100
2007-10-02 06:22:34 51°24.817 2°46.035 8.7 -999 13.1 101970 100
2007-10-02 06:22:39 51°24.833 2°46.026 7.7 2 13.1 101990 100
2007-10-02 06:22:44 51°24.85 2°46.016 8.5 3 13.1 101990 100
2007-10-02 06:22:49 51°24.867 2°46.006 4.4 2 13.1 101990 100
2007-10-02 06:22:54 51°24.884 2°45.997 9.2 4 13.1 101990 100
2007-10-02 06:22:58 51°24.897 2°45.989 8.7 3 13.1 101980 100
2007-10-02 06:23:04 51°24.918 2°45.978 8.7 2 13.1 101980 100
2007-10-02 06:23:09 51°24.934 2°45.968 7.7 5 13.1 102000 100
2007-10-02 06:23:14 51°24.952 2°45.959 7.3 4 13.1 102000 100
2007-10-02 06:23:19 51°24.968 2°45.949 8.5 2 13.1 101980 100
2007-10-02 06:23:24 51°24.985 2°45.94 10 2 13.1 101980 100
2007-10-02 06:23:29 51°25.003 2°45.93 10.2 359 13.1 101980 100
2007-10-02 06:23:34 51°25.02 2°45.921 9.7 1 13.1 101980 100
2007-10-02 06:23:39 51°25.036 2°45.91 9.1 360 13.1 101980 100
2007-10-02 06:23:44 51°25.053 2°45.901 9.8 3 13.1 101980 100
2007-10-02 06:23:49 51°25.07 2°45.891 9.3 4 13.2 101990 100
2007-10-02 06:23:54 51°25.086 2°45.881 8.9 5 13.2 101990 100
2007-10-02 06:23:58 51°25.1 2°45.873 9.2 3 13.2 101980 100
2007-10-02 06:24:04 51°25.12 2°45.861 9.1 5 13.2 101980 100
2007-10-02 06:24:09 51°25.137 2°45.851 8.7 5 13.1 101980 100
2007-10-02 06:24:14 51°25.154 2°45.841 9.3 5 13.1 101980 100
2007-10-02 06:24:19 51°25.171 2°45.831 7.6 6 13.1 101990 100
2007-10-02 06:24:25 51°25.191 2°45.82 9.4 1 13.1 101990 100
2007-10-02 06:24:29 51°25.205 2°45.813 8.4 7 13.1 101980 100
2007-10-02 06:24:34 51°25.222 2°45.803 8.7 5 13.1 101980 100
2007-10-02 06:24:39 51°25.239 2°45.794 8.4 8 13.1 101990 100
2007-10-02 06:24:44 51°25.256 2°45.784 8.5 4 13.1 101990 100
2007-10-02 06:24:49 51°25.272 2°45.775 7.9 6 13.1 101990 100
2007-10-02 06:24:54 51°25.289 2°45.765 7.4 4 13.1 101990 100
2007-10-02 06:24:59 51°25.306 2°45.756 8.3 6 13.2 101990 100
2007-10-02 06:25:04 51°25.323 2°45.746 9 3 13.2 101990 100
2007-10-02 06:25:09 51°25.34 2°45.736 9.5 4 13.2 101990 100
2007-10-02 06:25:14 51°25.357 2°45.725 8.6 6 13.2 101990 100
2007-10-02 06:25:18 51°25.37 2°45.717 9.6 2 13.2 101990 100
2007-10-02 06:25:24 51°25.39 2°45.704 7.5 4 13.2 101990 100
2007-10-02 06:25:29 51°25.407 2°45.695 8.5 3 13.2 101990 100
2007-10-02 06:25:34 51°25.424 2°45.684 7.6 2 13.2 101990 100
2007-10-02 06:25:39 51°25.441 2°45.675 9.3 1 13.2 101980 100
2007-10-02 06:25:44 51°25.458 2°45.665 9.7 359 13.2 101980 100
2007-10-02 06:25:49 51°25.475 2°45.655 9.2 2 13.2 101990 100
2007-10-02 06:25:54 51°25.492 2°45.645 10.5 2 13.2 101990 100
2007-10-02 06:25:59 51°25.509 2°45.636 10.4 -999 13.2 101980 100
2007-10-02 06:26:04 51°25.526 2°45.626 8.3 4 13.2 101980 100
2007-10-02 06:26:09 51°25.543 2°45.617 9.4 4 13.2 101990 100
2007-10-02 06:26:14 51°25.56 2°45.607 9.4 5 13.2 101990 100
2007-10-02 06:26:18 51°25.573 2°45.599 9.3 3 13.2 101980 100
2007-10-02 06:26:24 51°25.593 2°45.587 9.4 5 13.2 101980 100
2007-10-02 06:26:29 51°25.61 2°45.577 9 4 13.2 101990 100
2007-10-02 06:26:34 51°25.627 2°45.567 8.2 5 13.2 101990 100
2007-10-02 06:26:39 51°25.644 2°45.557 9.3 -999 13.2 101970 100
2007-10-02 06:26:44 51°25.661 2°45.547 8.8 2 13.2 101970 100
2007-10-02 06:26:49 51°25.677 2°45.538 9 4 13.2 101990 100
2007-10-02 06:26:54 51°25.695 2°45.528 8.5 3 13.2 101990 100
2007-10-02 06:26:59 51°25.712 2°45.518 9.1 2 13.2 101990 100
2007-10-02 06:27:04 51°25.729 2°45.509 8.9 2 13.2 101990 100
2007-10-02 06:27:09 51°25.746 2°45.499 8.5 5 13.2 101980 100
2007-10-02 06:27:14 51°25.763 2°45.489 8.1 5 13.2 101980 100
2007-10-02 06:27:18 51°25.776 2°45.481 8.2 2 13.2 101990 100
2007-10-02 06:27:24 51°25.797 2°45.469 8.6 4 13.2 101990 100
2007-10-02 06:27:29 51°25.814 2°45.46 7.3 5 13.2 101990 100
2007-10-02 06:27:34 51°25.831 2°45.45 8.9 3 13.2 101990 100
2007-10-02 06:27:39 51°25.848 2°45.44 7.3 2 13.2 102010 100
2007-10-02 06:27:44 51°25.865 2°45.43 9.8 6 13.2 102010 100
2007-10-02 06:27:49 51°25.882 2°45.419 8.6 7 13.2 101990 100
2007-10-02 06:27:54 51°25.899 2°45.41 8.8 -999 13.2 101990 100
2007-10-02 06:27:59 51°25.916 2°45.4 9.1 5 13.2 102000 100
2007-10-02 06:28:04 51°25.933 2°45.39 9.5 2 13.2 102000 100
2007-10-02 06:28:09 51°25.95 2°45.38 9.1 357 13.2 102000 100
2007-10-02 06:28:14 51°25.967 2°45.369 9.4 -999 13.2 102000 100
2007-10-02 06:28:19 51°25.985 2°45.36 10.9 359 13.2 102000 100
2007-10-02 06:28:24 51°26.001 2°45.349 11.1 2 13.2 102000 100
2007-10-02 06:28:29 51°26.019 2°45.34 10.6 5 13.3 102000 100
2007-10-02 06:28:34 51°26.035 2°45.329 9.1 2 13.3 102000 100
2007-10-02 06:28:38 51°26.049 2°45.321 8.7 4 13.3 102000 100
2007-10-02 06:28:44 51°26.069 2°45.308 9.4 1 13.3 102000 100
2007-10-02 06:28:49 51°26.086 2°45.298 8.4 3 13.3 101990 100
2007-10-02 06:28:54 51°26.103 2°45.288 8.9 3 13.3 101990 100
2007-10-02 06:28:59 51°26.119 2°45.278 8.7 2 13.3 101980 100
2007-10-02 06:29:04 51°26.136 2°45.268 10.6 1 13.3 101980 100
2007-10-02 06:29:09 51°26.153 2°45.258 8.1 3 13.3 102000 100
2007-10-02 06:29:14 51°26.17 2°45.247 9.7 3 13.3 102000 100
2007-10-02 06:29:19 51°26.187 2°45.238 10.3 2 13.3 101990 100
2007-10-02 06:29:24 51°26.204 2°45.227 9.7 3 13.3 101990 100
2007-10-02 06:29:29 51°26.221 2°45.217 9.1 2 13.3 101990 100
2007-10-02 06:29:34 51°26.238 2°45.208 8 4 13.3 101990 100
2007-10-02 06:29:39 51°26.255 2°45.198 9.1 360 13.3 102000 100
2007-10-02 06:29:44 51°26.271 2°45.188 11 358 13.3 102000 100
2007-10-02 06:29:49 51°26.289 2°45.178 10.4 1 13.3 101990 100
2007-10-02 06:29:54 51°26.306 2°45.168 11.4 2 13.3 101990 100
2007-10-02 06:29:58 51°26.319 2°45.16 9.4 360 13.3 101980 100
2007-10-02 06:30:04 51°26.339 2°45.148 8.4 -999 13.3 101980 100
2007-10-02 06:30:09 51°26.355 2°45.138 9.1 3 13.3 101980 100
2007-10-02 06:30:14 51°26.372 2°45.128 9.8 4 13.3 101980 100
2007-10-02 06:30:18 51°26.385 2°45.12 8.7 2 13.3 101990 100
2007-10-02 06:30:24 51°26.404 2°45.108 9.2 3 13.3 101990 100
2007-10-02 06:30:29 51°26.421 2°45.099 9 4 13.3 102000 100
2007-10-02 06:30:34 51°26.437 2°45.089 7.9 3 13.3 102000 100
2007-10-02 06:30:39 51°26.454 2°45.079 8 4 13.3 101990 100
2007-10-02 06:30:45 51°26.474 2°45.068 9.2 1 13.3 101990 100
2007-10-02 06:30:49 51°26.487 2°45.059 10 3 13.3 102010 100
2007-10-02 06:30:54 51°26.503 2°45.049 9.3 3 13.3 102010 100
2007-10-02 06:30:59 51°26.52 2°45.039 9.5 5 13.3 102000 100
2007-10-02 06:31:04 51°26.536 2°45.029 8.3 2 13.3 102000 100
2007-10-02 06:31:09 51°26.552 2°45.018 10.5 1 13.3 101990 100
2007-10-02 06:31:14 51°26.568 2°45.008 8.7 4 13.3 101990 100
2007-10-02 06:31:18 51°26.582 2°45.001 8.8 6 13.3 101980 100
2007-10-02 06:31:24 51°26.602 2°44.989 8 4 13.3 101980 100
2007-10-02 06:31:29 51°26.619 2°44.979 8.4 2 13.3 102000 100
2007-10-02 06:31:34 51°26.636 2°44.969 9.1 2 13.3 102000 100
2007-10-02 06:31:39 51°26.652 2°44.958 9.7 358 13.3 101980 100
2007-10-02 06:31:44 51°26.669 2°44.949 9.2 2 13.3 101980 100
2007-10-02 06:31:49 51°26.686 2°44.94 9 7 13.3 102000 100
2007-10-02 06:31:54 51°26.702 2°44.93 8.5 5 13.3 102000 100
2007-10-02 06:31:59 51°26.719 2°44.921 7.8 2 13.3 101990 100
2007-10-02 06:32:04 51°26.736 2°44.911 8.5 2 13.3 101990 100
2007-10-02 06:32:09 51°26.753 2°44.902 8.3 7 13.3 102000 100
2007-10-02 06:32:14 51°26.769 2°44.892 7.7 5 13.3 102000 100
2007-10-02 06:32:18 51°26.783 2°44.885 9.5 7 13.3 102000 100
2007-10-02 06:32:24 51°26.803 2°44.874 8.9 1 13.3 102000 100
2007-10-02 06:32:29 51°26.82 2°44.864 9.9 1 13.2 102000 100
2007-10-02 06:32:34 51°26.836 2°44.855 9.1 5 13.2 102000 100
2007-10-02 06:32:39 51°26.853 2°44.844 10 359 13.3 101990 100
2007-10-02 06:32:45 51°26.873 2°44.834 9.3 2 13.3 101990 100
2007-10-02 06:32:49 51°26.887 2°44.826 8.8 3 13.3 102000 100
2007-10-02 06:32:54 51°26.903 2°44.817 9.2 3 13.3 102000 100
2007-10-02 06:32:59 51°26.92 2°44.808 9.5 2 13.3 101990 100
2007-10-02 06:33:04 51°26.936 2°44.799 9.9 359 13.3 101990 100
2007-10-02 06:33:09 51°26.953 2°44.789 9 4 13.3 101990 100
2007-10-02 06:33:14 51°26.97 2°44.78 9.7 7 13.3 101990 100
2007-10-02 06:33:19 51°26.987 2°44.77 8.9 6 13.3 101980 100
2007-10-02 06:33:25 51°27.006 2°44.759 9.5 4 13.3 101980 100
2007-10-02 06:33:29 51°27.019 2°44.751 9.1 6 13.3 101990 100
2007-10-02 06:33:34 51°27.035 2°44.741 8.2 1 13.3 101990 100
2007-10-02 06:33:39 51°27.052 2°44.733 8.3 6 13.3 101990 100
2007-10-02 06:33:44 51°27.068 2°44.722 9.7 5 13.3 101990 100
2007-10-02 06:33:49 51°27.085 2°44.713 9.2 8 13.2 102010 100
2007-10-02 06:33:54 51°27.102 2°44.703 9.5 6 13.2 102010 100
2007-10-02 06:33:58 51°27.115 2°44.696 8.3 5 13.3 102000 100
2007-10-02 06:34:04 51°27.135 2°44.684 8.7 5 13.3 102000 100
2007-10-02 06:34:09 51°27.152 2°44.676 7.4 7 13.3 101990 100
2007-10-02 06:34:14 51°27.169 2°44.665 9.1 7 13.3 101990 100
2007-10-02 06:34:19 51°27.186 2°44.656 8.3 7 13.2 101990 100
2007-10-02 06:34:24 51°27.202 2°44.646 8 7 13.2 101990 100
2007-10-02 06:34:29 51°27.219 2°44.637 8.8 5 13.3 101980 100
2007-10-02 06:34:34 51°27.236 2°44.627 7.4 4 13.3 101980 100
2007-10-02 06:34:39 51°27.252 2°44.618 7.8 7 13.2 102010 100
2007-10-02 06:34:44 51°27.269 2°44.609 8.9 7 13.2 102010 100
2007-10-02 06:34:49 51°27.287 2°44.6 7.7 3 13.3 102000 100
2007-10-02 06:34:54 51°27.303 2°44.591 9.7 -999 13.3 102000 100
2007-10-02 06:34:59 51°27.32 2°44.582 8.5 3 13.3 102000 100
2007-10-02 06:35:04 51°27.337 2°44.573 8.8 5 13.3 102000 100
2007-10-02 06:35:09 51°27.354 2°44.563 9 4 13.3 101990 100
2007-10-02 06:35:14 51°27.371 2°44.553 9.5 3 13.3 101990 100
2007-10-02 06:35:19 51°27.387 2°44.545 8.6 1 13.3 101980 100
2007-10-02 06:35:24 51°27.404 2°44.534 9.6 4 13.3 101980 100
2007-10-02 06:35:29 51°27.421 2°44.525 10 3 13.3 102000 100
2007-10-02 06:35:34 51°27.438 2°44.516 9.6 5 13.3 102000 100
2007-10-02 06:35:39 51°27.455 2°44.506 9.2 4 13.3 101990 100
2007-10-02 06:35:45 51°27.476 2°44.494 8.3 4 13.3 101990 100
2007-10-02 06:35:49 51°27.489 2°44.487 9.4 4 13.3 101990 100
2007-10-02 06:35:54 51°27.506 2°44.478 9.7 1 13.3 101990 100
2007-10-02 06:35:59 51°27.523 2°44.467 9.7 4 13.2 101990 100
2007-10-02 06:36:04 51°27.54 2°44.457 8.8 5 13.2 101990 100